Time,TemperatureF,DewpointF,PressureIn,WindDirection,WindDirectionDegrees,WindSpeedMPH,WindSpeedGustMPH,Humidity,HourlyPrecipIn,Conditions,Clouds,dailyrainin,SolarRadiationWatts/m^2,SoftwareType,DateUTC
2013-01-26 00:03:00,15.0,10.2,30.25,South,183,0.0,0.0,81,0.00,CLR,,0.00,0.0,WeatherDisplay:10.37,2013-01-26 06:03:00,
2013-01-26 00:08:00,14.9,10.1,30.25,SSW,199,1.1,0.0,81,0.00,CLR,,0.00,0.0,WeatherDisplay:10.37,2013-01-26 06:08:00,
2013-01-26 00:13:00,14.8,10.0,30.26,SSW,198,0.0,0.0,81,0.00,CLR,,0.00,0.0,WeatherDisplay:10.37,2013-01-26 06:13:00,
2013-01-26 00:18:00,14.7,9.9,30.26,NW,321,0.0,0.0,81,0.00,CLR,,0.00,0.0,WeatherDisplay:10.37,2013-01-26 06:18:00,
2013-01-26 00:23:00,14.6,9.8,30.26,SE,143,0.0,0.0,81,0.00,CLR,,0.00,0.0,WeatherDisplay:10.37,2013-01-26 06:23:00,
2013-01-26 00:28:00,14.5,9.7,30.26,SE,143,0.0,0.0,81,0.00,CLR,,0.00,0.0,WeatherDisplay:10.37,2013-01-26 06:28:00,
2013-01-26 00:33:00,14.4,9.6,30.27,SE,143,0.0,0.0,81,0.00,CLR,,0.00,0.0,WeatherDisplay:10.37,2013-01-26 06:33:00,
2013-01-26 00:38:00,14.4,9.6,30.27,SE,143,0.0,0.0,81,0.00,CLR,,0.00,0.0,WeatherDisplay:10.37,2013-01-26 06:38:00,
2013-01-26 00:43:00,14.2,9.4,30.27,SSW,193,2.0,0.0,81,0.00,CLR,,0.00,0.0,WeatherDisplay:10.37,2013-01-26 06:43:00,
2013-01-26 00:48:00,14.1,9.3,30.27,WSW,244,0.0,0.0,81,0.00,CLR,,0.00,0.0,WeatherDisplay:10.37,2013-01-26 06:48:00,
2013-01-26 00:53:00,14.0,9.2,30.27,WSW,244,0.0,0.0,81,0.00,CLR,,0.00,0.0,WeatherDisplay:10.37,2013-01-26 06:53:00,
2013-01-26 00:58:00,13.8,9.0,30.27,WSW,244,0.0,0.0,81,0.00,CLR,,0.00,0.0,WeatherDisplay:10.37,2013-01-26 06:58:00,
2013-01-26 01:03:00,13.7,9.0,30.27,SSW,210,0.0,0.0,81,0.00,CLR,,0.00,0.0,WeatherDisplay:10.37,2013-01-26 07:03:00,
2013-01-26 01:08:00,13.6,8.9,30.27,West,270,2.3,2.3,81,0.00,CLR,,0.00,0.0,WeatherDisplay:10.37,2013-01-26 07:08:00,
2013-01-26 01:13:00,13.5,8.8,30.27,SW,235,0.0,0.0,81,0.00,CLR,,0.00,0.0,WeatherDisplay:10.37,2013-01-26 07:13:00,
2013-01-26 01:18:00,13.5,8.8,30.28,NW,306,0.0,0.0,81,0.00,CLR,,0.00,0.0,WeatherDisplay:10.37,2013-01-26 07:18:00,
2013-01-26 01:23:00,13.4,8.7,30.28,NW,308,0.0,0.0,81,0.00,CLR,,0.00,0.0,WeatherDisplay:10.37,2013-01-26 07:23:00,
2013-01-26 01:28:00,13.3,8.6,30.28,South,185,0.0,0.0,81,0.00,CLR,,0.00,0.0,WeatherDisplay:10.37,2013-01-26 07:28:00,
2013-01-26 01:33:00,13.3,8.6,30.28,South,185,0.0,0.0,81,0.00,CLR,,0.00,0.0,WeatherDisplay:10.37,2013-01-26 07:33:00,
2013-01-26 01:38:00,13.2,8.5,30.28,WNW,289,3.5,3.5,81,0.00,CLR,,0.00,0.0,WeatherDisplay:10.37,2013-01-26 07:38:00,
2013-01-26 01:43:00,13.1,8.4,30.29,South,186,0.0,0.0,81,0.00,CLR,,0.00,0.0,WeatherDisplay:10.37,2013-01-26 07:43:00,
2013-01-26 01:48:00,13.0,8.3,30.29,West,271,2.3,0.0,81,0.00,CLR,,0.00,0.0,WeatherDisplay:10.37,2013-01-26 07:48:00,
2013-01-26 01:53:00,12.9,8.2,30.29,WNW,289,4.6,4.6,81,0.00,CLR,,0.00,0.0,WeatherDisplay:10.37,2013-01-26 07:53:00,
2013-01-26 01:58:00,12.9,7.9,30.30,West,268,0.0,0.0,80,0.00,CLR,,0.00,0.0,WeatherDisplay:10.37,2013-01-26 07:58:00,
2013-01-26 02:03:00,12.8,7.8,30.30,SW,235,0.0,0.0,80,0.00,CLR,,0.00,0.0,WeatherDisplay:10.37,2013-01-26 08:03:00,
2013-01-26 02:08:00,12.8,7.8,30.30,West,268,4.6,4.6,80,0.00,CLR,,0.00,0.0,WeatherDisplay:10.37,2013-01-26 08:08:00,
2013-01-26 02:13:00,12.8,7.8,30.30,NW,314,0.0,0.0,80,0.00,CLR,,0.00,0.0,WeatherDisplay:10.37,2013-01-26 08:13:00,
2013-01-26 02:18:00,12.7,7.7,30.30,North,352,0.0,0.0,80,0.00,CLR,,0.00,0.0,WeatherDisplay:10.37,2013-01-26 08:18:00,
2013-01-26 02:23:00,12.6,7.6,30.30,NW,312,0.0,0.0,80,0.00,CLR,,0.00,0.0,WeatherDisplay:10.37,2013-01-26 08:23:00,
2013-01-26 02:28:00,12.5,7.5,30.30,NNW,331,0.0,0.0,80,0.00,CLR,,0.00,0.0,WeatherDisplay:10.37,2013-01-26 08:28:00,
2013-01-26 02:33:00,12.3,7.3,30.30,West,274,1.1,1.1,80,0.00,CLR,,0.00,0.0,WeatherDisplay:10.37,2013-01-26 08:33:00,
2013-01-26 02:38:00,12.3,7.3,30.31,NNE,13,1.1,1.1,80,0.00,CLR,,0.00,0.0,WeatherDisplay:10.37,2013-01-26 08:38:00,
2013-01-26 02:43:00,12.1,7.1,30.30,North,356,0.0,0.0,80,0.00,CLR,,0.00,0.0,WeatherDisplay:10.37,2013-01-26 08:43:00,
2013-01-26 02:48:00,12.0,7.0,30.31,WNW,291,2.3,2.3,80,0.00,CLR,,0.00,0.0,WeatherDisplay:10.37,2013-01-26 08:48:00,
2013-01-26 02:53:00,11.9,6.9,30.31,WNW,292,0.0,0.0,80,0.00,CLR,,0.00,0.0,WeatherDisplay:10.37,2013-01-26 08:53:00,
2013-01-26 02:58:00,11.8,6.8,30.31,West,275,0.0,0.0,80,0.00,CLR,,0.00,0.0,WeatherDisplay:10.37,2013-01-26 08:58:00,
2013-01-26 03:03:00,11.7,6.7,30.31,SW,224,0.0,0.0,80,0.00,CLR,,0.00,0.0,WeatherDisplay:10.37,2013-01-26 09:03:00,
2013-01-26 03:08:00,11.6,6.6,30.31,SW,224,0.0,0.0,80,0.00,CLR,,0.00,0.0,WeatherDisplay:10.37,2013-01-26 09:08:00,
2013-01-26 03:13:00,11.4,6.4,30.31,NNW,342,0.0,0.0,80,0.00,CLR,,0.00,0.0,WeatherDisplay:10.37,2013-01-26 09:13:00,
2013-01-26 03:18:00,11.4,6.4,30.32,West,275,0.0,0.0,80,0.00,CLR,,0.00,0.0,WeatherDisplay:10.37,2013-01-26 09:18:00,
2013-01-26 03:23:00,11.3,6.3,30.32,WNW,289,1.1,1.1,80,0.00,CLR,,0.00,0.0,WeatherDisplay:10.37,2013-01-26 09:23:00,
2013-01-26 03:28:00,11.1,6.1,30.33,SSW,207,0.0,0.0,80,0.00,CLR,,0.00,0.0,WeatherDisplay:10.37,2013-01-26 09:28:00,
2013-01-26 03:33:00,11.1,6.1,30.33,SSW,206,0.0,0.0,80,0.00,CLR,,0.00,0.0,WeatherDisplay:10.37,2013-01-26 09:33:00,
2013-01-26 03:38:00,11.0,6.0,30.33,WSW,250,2.3,0.0,80,0.00,CLR,,0.00,0.0,WeatherDisplay:10.37,2013-01-26 09:38:00,
2013-01-26 03:43:00,10.9,6.2,30.33,WSW,250,0.0,0.0,81,0.00,CLR,,0.00,0.0,WeatherDisplay:10.37,2013-01-26 09:43:00,
2013-01-26 03:48:00,10.8,5.8,30.33,WSW,250,0.0,0.0,80,0.00,CLR,,0.00,0.0,WeatherDisplay:10.37,2013-01-26 09:48:00,
2013-01-26 03:53:00,10.7,6.0,30.33,WSW,250,0.0,0.0,81,0.00,CLR,,0.00,0.0,WeatherDisplay:10.37,2013-01-26 09:53:00,
2013-01-26 03:58:00,10.5,5.8,30.33,WSW,250,0.0,0.0,81,0.00,CLR,,0.00,0.0,WeatherDisplay:10.37,2013-01-26 09:58:00,
2013-01-26 04:03:00,10.4,5.7,30.33,West,259,0.0,0.0,81,0.00,CLR,,0.00,0.0,WeatherDisplay:10.37,2013-01-26 10:03:00,
2013-01-26 04:08:00,10.4,5.7,30.33,West,269,0.0,0.0,81,0.00,CLR,,0.00,0.0,WeatherDisplay:10.37,2013-01-26 10:08:00,
2013-01-26 04:13:00,10.3,5.6,30.33,West,268,0.0,0.0,81,0.00,CLR,,0.00,0.0,WeatherDisplay:10.37,2013-01-26 10:13:00,
2013-01-26 04:18:00,10.2,5.5,30.33,West,267,0.0,0.0,81,0.00,CLR,,0.00,0.0,WeatherDisplay:10.37,2013-01-26 10:18:00,
2013-01-26 04:23:00,10.1,5.4,30.33,West,268,0.0,0.0,81,0.00,CLR,,0.00,0.0,WeatherDisplay:10.37,2013-01-26 10:23:00,
2013-01-26 04:28:00,10.0,5.3,30.33,WSW,239,0.0,0.0,81,0.00,CLR,,0.00,0.0,WeatherDisplay:10.37,2013-01-26 10:28:00,
2013-01-26 04:33:00,10.0,5.3,30.34,NW,306,0.0,0.0,81,0.00,CLR,,0.00,0.0,WeatherDisplay:10.37,2013-01-26 10:33:00,
2013-01-26 04:38:00,10.0,5.3,30.33,NW,305,0.0,0.0,81,0.00,CLR,,0.00,0.0,WeatherDisplay:10.37,2013-01-26 10:38:00,
2013-01-26 04:43:00,9.9,5.2,30.34,NW,306,0.0,0.0,81,0.00,CLR,,0.00,0.0,WeatherDisplay:10.37,2013-01-26 10:43:00,
2013-01-26 04:48:00,9.7,5.0,30.34,NW,305,0.0,0.0,81,0.00,CLR,,0.00,0.0,WeatherDisplay:10.37,2013-01-26 10:48:00,
2013-01-26 04:53:00,9.5,4.8,30.34,NW,306,0.0,0.0,81,0.00,CLR,,0.00,0.0,WeatherDisplay:10.37,2013-01-26 10:53:00,
2013-01-26 04:58:00,9.4,4.7,30.34,NW,306,0.0,0.0,81,0.00,CLR,,0.00,0.0,WeatherDisplay:10.37,2013-01-26 10:58:00,
2013-01-26 05:03:00,9.2,4.6,30.34,NW,306,0.0,0.0,81,0.00,CLR,,0.00,0.0,WeatherDisplay:10.37,2013-01-26 11:03:00,
2013-01-26 05:08:00,9.1,4.5,30.34,NW,306,0.0,0.0,81,0.00,CLR,,0.00,0.0,WeatherDisplay:10.37,2013-01-26 11:08:00,
2013-01-26 05:13:00,9.0,4.6,30.34,NW,306,0.0,0.0,82,0.00,CLR,,0.00,0.0,WeatherDisplay:10.37,2013-01-26 11:13:00,
2013-01-26 05:18:00,9.0,4.6,30.34,NW,306,0.0,0.0,82,0.00,CLR,,0.00,0.0,WeatherDisplay:10.37,2013-01-26 11:18:00,
2013-01-26 05:23:00,8.8,4.4,30.35,SSW,196,0.0,0.0,82,0.00,CLR,,0.00,0.0,WeatherDisplay:10.37,2013-01-26 11:23:00,
2013-01-26 05:28:00,8.7,4.3,30.35,SSW,196,0.0,0.0,82,0.00,CLR,,0.00,0.0,WeatherDisplay:10.37,2013-01-26 11:28:00,
2013-01-26 05:33:00,8.5,4.1,30.35,SSW,196,0.0,0.0,82,0.00,CLR,,0.00,0.0,WeatherDisplay:10.37,2013-01-26 11:33:00,
2013-01-26 05:38:00,8.3,3.9,30.35,SSW,196,0.0,0.0,82,0.00,CLR,,0.00,0.0,WeatherDisplay:10.37,2013-01-26 11:38:00,
2013-01-26 05:43:00,8.1,3.7,30.35,SSW,196,0.0,0.0,82,0.00,CLR,,0.00,0.0,WeatherDisplay:10.37,2013-01-26 11:43:00,
2013-01-26 05:48:00,7.9,3.5,30.36,SSW,196,0.0,0.0,82,0.00,CLR,,0.00,0.0,WeatherDisplay:10.37,2013-01-26 11:48:00,
2013-01-26 05:53:00,7.6,3.3,30.36,SSW,196,0.0,0.0,82,0.00,CLR,,0.00,0.0,WeatherDisplay:10.37,2013-01-26 11:53:00,
2013-01-26 05:58:00,7.4,3.1,30.36,SSW,196,0.0,0.0,82,0.00,CLR,,0.00,0.0,WeatherDisplay:10.37,2013-01-26 11:58:00,
2013-01-26 06:03:00,7.2,2.9,30.36,SSW,196,0.0,0.0,82,0.00,CLR,,0.00,0.0,WeatherDisplay:10.37,2013-01-26 12:03:00,
2013-01-26 06:08:00,7.0,2.7,30.36,SSW,196,0.0,0.0,82,0.00,CLR,,0.00,0.0,WeatherDisplay:10.37,2013-01-26 12:08:00,
2013-01-26 06:13:00,6.8,2.5,30.37,SSW,196,0.0,0.0,82,0.00,CLR,,0.00,0.0,WeatherDisplay:10.37,2013-01-26 12:13:00,
2013-01-26 06:18:00,6.6,2.3,30.37,SSW,196,0.0,0.0,82,0.00,CLR,,0.00,0.0,WeatherDisplay:10.37,2013-01-26 12:18:00,
2013-01-26 06:23:00,6.5,2.4,30.38,SSW,196,0.0,0.0,83,0.00,CLR,,0.00,0.0,WeatherDisplay:10.37,2013-01-26 12:23:00,
2013-01-26 06:28:00,6.4,2.3,30.38,SSW,196,0.0,0.0,83,0.00,CLR,,0.00,0.0,WeatherDisplay:10.37,2013-01-26 12:28:00,
2013-01-26 06:33:00,6.3,2.2,30.38,SSW,196,0.0,0.0,83,0.00,CLR,,0.00,0.0,WeatherDisplay:10.37,2013-01-26 12:33:00,
2013-01-26 06:38:00,6.1,2.0,30.38,SSW,196,0.0,0.0,83,0.00,CLR,,0.00,0.0,WeatherDisplay:10.37,2013-01-26 12:38:00,
2013-01-26 06:43:00,5.8,1.8,30.39,SSW,196,0.0,0.0,83,0.00,CLR,,0.00,0.0,WeatherDisplay:10.37,2013-01-26 12:43:00,
2013-01-26 06:48:00,5.5,1.5,30.39,SSW,196,0.0,0.0,83,0.00,CLR,,0.00,0.0,WeatherDisplay:10.37,2013-01-26 12:48:00,
2013-01-26 06:53:00,5.2,1.2,30.39,SSW,196,0.0,0.0,83,0.00,CLR,,0.00,0.0,WeatherDisplay:10.37,2013-01-26 12:53:00,
2013-01-26 06:58:00,5.0,1.2,30.39,SSW,196,0.0,0.0,84,0.00,CLR,,0.00,0.0,WeatherDisplay:10.37,2013-01-26 12:58:00,
2013-01-26 07:03:00,4.9,1.1,30.39,SSW,196,0.0,0.0,84,0.00,OVC,,0.00,0.0,WeatherDisplay:10.37,2013-01-26 13:03:00,
2013-01-26 07:08:00,4.7,0.9,30.39,SSW,196,0.0,0.0,84,0.00,OVC,,0.00,0.0,WeatherDisplay:10.37,2013-01-26 13:08:00,
2013-01-26 07:13:00,4.6,0.8,30.39,SSW,196,0.0,0.0,84,0.00,OVC,,0.00,0.0,WeatherDisplay:10.37,2013-01-26 13:13:00,
2013-01-26 07:18:00,4.4,0.6,30.40,SSW,196,0.0,0.0,84,0.00,OVC,,0.00,0.0,WeatherDisplay:10.37,2013-01-26 13:18:00,
2013-01-26 07:23:00,4.3,0.5,30.40,SSW,196,0.0,0.0,84,0.00,SCT,,0.00,5.0,WeatherDisplay:10.37,2013-01-26 13:23:00,
2013-01-26 07:28:00,4.2,0.4,30.41,SSW,196,0.0,0.0,84,0.00,BKN,,0.00,9.0,WeatherDisplay:10.37,2013-01-26 13:28:00,
2013-01-26 07:33:00,4.1,0.3,30.41,SSW,196,0.0,0.0,84,0.00,BKN,,0.00,12.0,WeatherDisplay:10.37,2013-01-26 13:33:00,
2013-01-26 07:38:00,4.0,0.5,30.41,SSW,196,0.0,0.0,85,0.00,BKN,,0.00,16.0,WeatherDisplay:10.37,2013-01-26 13:38:00,
2013-01-26 07:43:00,4.2,0.7,30.41,SSW,196,0.0,0.0,85,0.00,BKN,,0.00,18.0,WeatherDisplay:10.37,2013-01-26 13:43:00,
2013-01-26 07:48:00,4.5,1.0,30.41,SSW,196,0.0,0.0,85,0.00,BKN,,0.00,23.0,WeatherDisplay:10.37,2013-01-26 13:48:00,
2013-01-26 07:53:00,4.8,1.3,30.42,SSW,196,0.0,0.0,85,0.00,BKN,,0.00,23.0,WeatherDisplay:10.37,2013-01-26 13:53:00,
2013-01-26 07:58:00,5.1,1.6,30.42,SSW,196,0.0,0.0,85,0.00,BKN,,0.00,32.0,WeatherDisplay:10.37,2013-01-26 13:58:00,
2013-01-26 08:03:00,5.6,2.3,30.42,SSW,196,0.0,0.0,86,0.00,BKN,,0.00,40.0,WeatherDisplay:10.37,2013-01-26 14:03:00,
2013-01-26 08:08:00,6.4,3.1,30.42,SSW,196,0.0,0.0,86,0.00,BKN,,0.00,33.0,WeatherDisplay:10.37,2013-01-26 14:08:00,
2013-01-26 08:13:00,6.9,3.6,30.42,SSW,202,0.0,0.0,86,0.00,BKN,,0.00,35.0,WeatherDisplay:10.37,2013-01-26 14:13:00,
2013-01-26 08:18:00,7.4,4.1,30.43,SW,226,2.3,2.3,86,0.00,BKN,,0.00,33.0,WeatherDisplay:10.37,2013-01-26 14:18:00,
2013-01-26 08:23:00,7.9,4.6,30.42,SW,214,3.5,3.5,86,0.00,BKN,,0.00,33.0,WeatherDisplay:10.37,2013-01-26 14:23:00,
2013-01-26 08:28:00,8.3,5.0,30.43,SW,228,0.0,0.0,86,0.00,BKN,,0.00,40.0,WeatherDisplay:10.37,2013-01-26 14:28:00,
2013-01-26 08:33:00,8.7,5.4,30.43,SW,224,2.3,2.3,86,0.00,BKN,,0.00,56.0,WeatherDisplay:10.37,2013-01-26 14:33:00,
2013-01-26 08:38:00,9.0,5.7,30.43,SSW,204,0.0,0.0,86,0.00,BKN,,0.00,42.0,WeatherDisplay:10.37,2013-01-26 14:38:00,
2013-01-26 08:43:00,9.4,6.1,30.43,SW,217,0.0,0.0,86,0.00,BKN,,0.00,70.0,WeatherDisplay:10.37,2013-01-26 14:43:00,
2013-01-26 08:48:00,9.8,6.2,30.43,SW,218,0.0,0.0,85,0.00,BKN,,0.00,56.0,WeatherDisplay:10.37,2013-01-26 14:48:00,
2013-01-26 08:53:00,10.0,6.4,30.43,West,273,1.1,0.0,85,0.00,BKN,,0.00,40.0,WeatherDisplay:10.37,2013-01-26 14:53:00,
2013-01-26 08:58:00,10.3,6.7,30.43,West,268,0.0,0.0,85,0.00,BKN,,0.00,46.0,WeatherDisplay:10.37,2013-01-26 14:58:00,
2013-01-26 09:03:00,10.6,6.7,30.44,West,268,0.0,0.0,84,0.00,BKN,,0.00,65.0,WeatherDisplay:10.37,2013-01-26 15:03:00,
2013-01-26 09:08:00,10.9,9.3,30.44,West,268,0.0,0.0,93,0.00,BKN,,0.00,58.0,WeatherDisplay:10.37,2013-01-26 15:08:00,
2013-01-26 09:13:00,11.1,7.2,30.44,SSW,203,0.0,0.0,84,0.00,BKN,,0.00,60.0,WeatherDisplay:10.37,2013-01-26 15:13:00,
2013-01-26 09:18:00,11.5,7.3,30.44,SSW,197,3.0,0.0,83,0.00,BKN,,0.00,76.0,WeatherDisplay:10.37,2013-01-26 15:18:00,
2013-01-26 09:23:00,11.7,7.3,30.45,SSW,196,0.0,0.0,82,0.00,BKN,,0.00,62.0,WeatherDisplay:10.37,2013-01-26 15:23:00,
2013-01-26 09:28:00,12.0,7.6,30.45,NW,310,2.3,0.0,82,0.00,BKN,,0.00,107.0,WeatherDisplay:10.37,2013-01-26 15:28:00,
2013-01-26 09:33:00,12.3,7.6,30.45,West,279,0.0,0.0,81,0.00,BKN,,0.00,127.0,WeatherDisplay:10.37,2013-01-26 15:33:00,
2013-01-26 09:38:00,12.6,7.6,30.45,West,267,0.0,0.0,80,0.00,BKN,,0.00,72.0,WeatherDisplay:10.37,2013-01-26 15:38:00,
2013-01-26 09:43:00,12.9,7.9,30.45,West,267,0.0,0.0,80,0.00,BKN,,0.00,95.0,WeatherDisplay:10.37,2013-01-26 15:43:00,
2013-01-26 09:48:00,13.2,7.9,30.45,WSW,241,3.5,0.0,79,0.00,BKN,,0.00,149.0,WeatherDisplay:10.37,2013-01-26 15:48:00,
2013-01-26 09:53:00,13.4,7.8,30.45,WSW,239,2.3,2.3,78,0.00,BKN,,0.00,186.0,WeatherDisplay:10.37,2013-01-26 15:53:00,
2013-01-26 09:58:00,13.6,8.0,30.45,SSW,206,1.1,0.0,78,0.00,BKN,,0.00,97.0,WeatherDisplay:10.37,2013-01-26 15:58:00,
2013-01-26 10:03:00,13.8,7.9,30.45,NW,322,0.0,0.2,77,0.00,BKN,,0.00,74.0,WeatherDisplay:10.37,2013-01-26 16:03:00,
2013-01-26 10:08:00,14.1,7.9,30.45,SW,234,2.3,0.0,76,0.00,BKN,,0.00,63.0,WeatherDisplay:10.37,2013-01-26 16:08:00,
2013-01-26 10:13:00,14.4,8.2,30.46,WSW,237,0.0,0.1,76,0.00,BKN,,0.00,93.0,WeatherDisplay:10.37,2013-01-26 16:13:00,
2013-01-26 10:18:00,14.7,8.5,30.46,WSW,248,2.3,2.3,76,0.00,BKN,,0.00,100.0,WeatherDisplay:10.37,2013-01-26 16:18:00,
2013-01-26 10:23:00,15.0,8.5,30.45,WNW,284,0.0,0.4,75,0.00,BKN,,0.00,84.0,WeatherDisplay:10.37,2013-01-26 16:23:00,
2013-01-26 10:28:00,15.2,8.4,30.45,WNW,282,0.0,0.0,74,0.00,BKN,,0.00,91.0,WeatherDisplay:10.37,2013-01-26 16:28:00,
2013-01-26 10:33:00,15.4,8.3,30.46,SW,224,3.0,3.0,73,0.00,BKN,,0.00,83.0,WeatherDisplay:10.37,2013-01-26 16:33:00,
2013-01-26 10:38:00,15.6,8.5,30.45,SW,229,1.1,0.0,73,0.00,BKN,,0.00,77.0,WeatherDisplay:10.37,2013-01-26 16:38:00,
2013-01-26 10:43:00,15.7,8.3,30.46,WNW,287,0.0,0.0,72,0.00,BKN,,0.00,206.0,WeatherDisplay:10.37,2013-01-26 16:43:00,
2013-01-26 10:48:00,16.0,8.6,30.46,West,273,0.0,0.0,72,0.00,SCT,,0.00,350.0,WeatherDisplay:10.37,2013-01-26 16:48:00,
2013-01-26 10:53:00,16.6,9.1,30.46,West,260,0.0,0.0,72,0.00,SCT,,0.00,202.0,WeatherDisplay:10.37,2013-01-26 16:53:00,
2013-01-26 10:58:00,17.1,9.0,30.46,West,270,1.1,1.1,70,0.00,SCT,,0.00,346.0,WeatherDisplay:10.37,2013-01-26 16:58:00,
2013-01-26 11:03:00,17.3,8.9,30.46,West,277,2.3,2.3,69,0.00,FEW,,0.00,283.0,WeatherDisplay:10.37,2013-01-26 17:03:00,
2013-01-26 11:08:00,17.6,9.5,30.46,West,271,0.0,0.0,70,0.00,FEW,,0.00,348.0,WeatherDisplay:10.37,2013-01-26 17:08:00,
2013-01-26 11:13:00,18.2,9.7,30.46,SW,217,0.0,0.0,69,0.00,FEW,,0.00,350.0,WeatherDisplay:10.37,2013-01-26 17:13:00,
2013-01-26 11:18:00,18.4,9.6,30.45,WNW,298,0.0,0.1,68,0.00,SCT,,0.00,190.0,WeatherDisplay:10.37,2013-01-26 17:18:00,
2013-01-26 11:23:00,18.5,9.7,30.45,WSW,239,2.3,0.0,68,0.00,SCT,,0.00,214.0,WeatherDisplay:10.37,2013-01-26 17:23:00,
2013-01-26 11:28:00,18.7,9.9,30.45,WSW,239,0.0,0.0,68,0.00,BKN,,0.00,72.0,WeatherDisplay:10.37,2013-01-26 17:28:00,
2013-01-26 11:33:00,18.9,9.7,30.45,WSW,239,0.0,0.0,67,0.00,BKN,,0.00,77.0,WeatherDisplay:10.37,2013-01-26 17:33:00,
2013-01-26 11:38:00,19.0,9.8,30.45,WSW,240,0.0,0.0,67,0.00,BKN,,0.00,118.0,WeatherDisplay:10.37,2013-01-26 17:38:00,
2013-01-26 11:43:00,19.1,9.9,30.45,SSW,197,1.1,0.0,67,0.00,BKN,,0.00,77.0,WeatherDisplay:10.37,2013-01-26 17:43:00,
2013-01-26 11:48:00,19.2,10.4,30.45,SSW,212,2.3,2.3,68,0.00,BKN,,0.00,76.0,WeatherDisplay:10.37,2013-01-26 17:48:00,
2013-01-26 11:53:00,19.5,10.3,30.44,WSW,257,2.0,2.0,67,0.00,BKN,,0.00,169.0,WeatherDisplay:10.37,2013-01-26 17:53:00,
2013-01-26 11:58:00,19.6,10.1,30.44,West,261,2.3,0.0,66,0.00,BKN,,0.00,93.0,WeatherDisplay:10.37,2013-01-26 17:58:00,
2013-01-26 12:03:00,19.8,10.6,30.44,SW,230,0.0,0.0,67,0.00,BKN,,0.00,76.0,WeatherDisplay:10.37,2013-01-26 18:03:00,
2013-01-26 12:08:00,19.9,10.4,30.44,SW,235,0.0,0.0,66,0.00,BKN,,0.00,130.0,WeatherDisplay:10.37,2013-01-26 18:08:00,
2013-01-26 12:13:00,20.4,10.5,30.44,SW,232,2.3,2.3,65,0.00,BKN,,0.00,278.0,WeatherDisplay:10.37,2013-01-26 18:13:00,
2013-01-26 12:18:00,21.0,11.4,30.44,SW,219,3.5,3.5,66,0.00,SCT,,0.00,432.0,WeatherDisplay:10.37,2013-01-26 18:18:00,
2013-01-26 12:23:00,21.0,10.7,30.44,WSW,244,3.5,3.5,64,0.00,CLR,,0.00,485.0,WeatherDisplay:10.37,2013-01-26 18:23:00,
2013-01-26 12:28:00,21.6,11.3,30.44,WSW,241,0.0,0.0,64,0.00,CLR,,0.00,522.0,WeatherDisplay:10.37,2013-01-26 18:28:00,
2013-01-26 12:33:00,22.3,11.6,30.43,WSW,241,0.0,0.0,63,0.00,CLR,,0.00,526.0,WeatherDisplay:10.37,2013-01-26 18:33:00,
2013-01-26 12:38:00,22.1,11.1,30.44,SSW,203,3.5,3.5,62,0.00,CLR,,0.00,522.0,WeatherDisplay:10.37,2013-01-26 18:38:00,
2013-01-26 12:43:00,21.7,10.7,30.43,SW,223,2.3,2.3,62,0.00,CLR,,0.00,520.0,WeatherDisplay:10.37,2013-01-26 18:43:00,
2013-01-26 12:48:00,22.5,11.1,30.43,SW,231,1.1,0.0,61,0.00,CLR,,0.00,524.0,WeatherDisplay:10.37,2013-01-26 18:48:00,
2013-01-26 12:53:00,23.0,11.2,30.43,SW,231,1.0,1.0,60,0.00,CLR,,0.00,526.0,WeatherDisplay:10.37,2013-01-26 18:53:00,
2013-01-26 12:58:00,23.0,11.5,30.43,SW,236,2.3,2.3,61,0.00,CLR,,0.00,276.0,WeatherDisplay:10.37,2013-01-26 18:58:00,
2013-01-26 13:03:00,23.3,11.8,30.43,SW,236,0.0,0.0,61,0.00,CLR,,0.00,399.0,WeatherDisplay:10.37,2013-01-26 19:03:00,
2013-01-26 13:08:00,23.2,11.7,30.43,WSW,237,0.0,0.0,61,0.00,FEW,,0.00,281.0,WeatherDisplay:10.37,2013-01-26 19:08:00,
2013-01-26 13:13:00,23.1,11.6,30.42,WSW,237,0.0,0.0,61,0.00,FEW,,0.00,311.0,WeatherDisplay:10.37,2013-01-26 19:13:00,
2013-01-26 13:18:00,23.4,11.9,30.43,SW,236,0.0,0.0,61,0.00,SCT,,0.00,246.0,WeatherDisplay:10.37,2013-01-26 19:18:00,
2013-01-26 13:23:00,23.4,12.3,30.43,WSW,240,1.1,0.0,62,0.00,SCT,,0.00,230.0,WeatherDisplay:10.37,2013-01-26 19:23:00,
2013-01-26 13:28:00,23.4,12.3,30.43,WSW,238,2.3,2.3,62,0.00,SCT,,0.00,418.0,WeatherDisplay:10.37,2013-01-26 19:28:00,
2013-01-26 13:33:00,24.1,12.6,30.43,South,186,0.0,0.0,61,0.00,CLR,,0.00,357.0,WeatherDisplay:10.37,2013-01-26 19:33:00,
2013-01-26 13:38:00,24.9,13.0,30.43,SSW,194,1.1,0.0,60,0.00,CLR,,0.00,364.0,WeatherDisplay:10.37,2013-01-26 19:38:00,
2013-01-26 13:43:00,25.1,12.8,30.42,SSW,195,0.0,0.0,59,0.00,CLR,,0.00,413.0,WeatherDisplay:10.37,2013-01-26 19:43:00,
2013-01-26 13:48:00,24.3,11.6,30.42,SW,220,1.0,0.0,58,0.00,CLR,,0.00,355.0,WeatherDisplay:10.37,2013-01-26 19:48:00,
2013-01-26 13:53:00,24.6,11.9,30.42,WSW,246,3.5,3.5,58,0.00,CLR,,0.00,446.0,WeatherDisplay:10.37,2013-01-26 19:53:00,
2013-01-26 13:58:00,24.5,11.8,30.43,West,270,1.0,0.0,58,0.00,CLR,,0.00,439.0,WeatherDisplay:10.37,2013-01-26 19:58:00,
2013-01-26 14:03:00,24.6,11.5,30.43,West,279,2.3,0.0,57,0.00,CLR,,0.00,427.0,WeatherDisplay:10.37,2013-01-26 20:03:00,
2013-01-26 14:08:00,25.2,12.9,30.43,West,277,0.0,0.0,59,0.00,CLR,,0.00,417.0,WeatherDisplay:10.37,2013-01-26 20:08:00,
2013-01-26 14:13:00,25.4,12.3,30.43,West,277,0.0,0.0,57,0.00,CLR,,0.00,410.0,WeatherDisplay:10.37,2013-01-26 20:13:00,
2013-01-26 17:07:00,21.3,11.0,30.42,North,4,0.0,0.0,64,0.00,CLR,,0.01,0.0,WeatherDisplay:10.37,2013-01-26 23:07:00,
2013-01-26 17:12:00,21.0,10.7,30.42,North,4,0.0,0.0,64,0.00,CLR,,0.01,0.0,WeatherDisplay:10.37,2013-01-26 23:12:00,
2013-01-26 17:17:00,20.7,10.8,30.43,North,4,0.0,0.0,65,0.00,CLR,,0.01,0.0,WeatherDisplay:10.37,2013-01-26 23:17:00,
2013-01-26 17:22:00,20.4,10.5,30.42,North,4,0.0,0.0,65,0.00,CLR,,0.01,0.0,WeatherDisplay:10.37,2013-01-26 23:22:00,
2013-01-26 17:27:00,20.0,10.5,30.42,North,4,0.0,0.0,66,0.00,CLR,,0.01,0.0,WeatherDisplay:10.37,2013-01-26 23:27:00,
2013-01-26 17:32:00,19.8,10.6,30.42,North,4,0.0,0.0,67,0.00,CLR,,0.01,0.0,WeatherDisplay:10.37,2013-01-26 23:32:00,
2013-01-26 17:37:00,19.5,10.3,30.42,North,4,0.0,0.0,67,0.00,CLR,,0.01,0.0,WeatherDisplay:10.37,2013-01-26 23:37:00,
2013-01-26 17:42:00,19.2,10.4,30.42,North,4,0.0,0.0,68,0.00,CLR,,0.01,0.0,WeatherDisplay:10.37,2013-01-26 23:42:00,
2013-01-26 17:47:00,19.0,10.2,30.43,North,4,0.0,0.0,68,0.00,CLR,,0.01,0.0,WeatherDisplay:10.37,2013-01-26 23:47:00,
2013-01-26 17:52:00,18.9,10.4,30.43,North,4,0.0,0.0,69,0.00,CLR,,0.01,0.0,WeatherDisplay:10.37,2013-01-26 23:52:00,
2013-01-26 17:57:00,18.8,10.3,30.43,North,4,0.0,0.0,69,0.00,CLR,,0.01,0.0,WeatherDisplay:10.37,2013-01-26 23:57:00,
2013-01-26 18:02:00,18.7,10.5,30.42,North,4,0.0,0.0,70,0.00,CLR,,0.01,0.0,WeatherDisplay:10.37,2013-01-27 00:02:00,
2013-01-26 18:07:00,18.5,10.7,30.42,North,4,0.0,0.0,71,0.00,CLR,,0.01,0.0,WeatherDisplay:10.37,2013-01-27 00:07:00,
2013-01-26 18:12:00,18.5,11.3,30.42,North,4,0.0,0.0,73,0.00,CLR,,0.01,0.0,WeatherDisplay:10.37,2013-01-27 00:12:00,
2013-01-26 18:17:00,18.4,11.2,30.42,North,4,0.0,0.0,73,0.00,CLR,,0.01,0.0,WeatherDisplay:10.37,2013-01-27 00:17:00,
2013-01-26 18:22:00,18.5,11.6,30.43,North,4,0.0,0.0,74,0.00,CLR,,0.01,0.0,WeatherDisplay:10.37,2013-01-27 00:22:00,
2013-01-26 18:27:00,18.5,11.9,30.42,North,4,0.0,0.0,75,0.00,CLR,,0.01,0.0,WeatherDisplay:10.37,2013-01-27 00:27:00,
2013-01-26 18:32:00,18.7,12.1,30.42,North,4,0.0,0.0,75,0.00,CLR,,0.01,0.0,WeatherDisplay:10.37,2013-01-27 00:32:00,
2013-01-26 18:37:00,19.0,12.4,30.43,North,4,0.0,0.0,75,0.00,CLR,,0.01,0.0,WeatherDisplay:10.37,2013-01-27 00:37:00,
2013-01-26 18:42:00,19.1,12.5,30.43,North,4,0.0,0.0,75,0.00,CLR,,0.01,0.0,WeatherDisplay:10.37,2013-01-27 00:42:00,
2013-01-26 18:47:00,19.3,12.7,30.43,North,4,0.0,0.0,75,0.00,CLR,,0.01,0.0,WeatherDisplay:10.37,2013-01-27 00:47:00,
2013-01-26 18:52:00,19.5,12.9,30.44,North,4,0.0,0.0,75,0.00,CLR,,0.01,0.0,WeatherDisplay:10.37,2013-01-27 00:52:00,
2013-01-26 18:57:00,19.7,13.1,30.44,North,4,0.0,0.0,75,0.00,CLR,,0.01,0.0,WeatherDisplay:10.37,2013-01-27 00:57:00,
2013-01-26 19:02:00,19.8,13.2,30.44,North,4,0.0,0.0,75,0.00,CLR,,0.01,0.0,WeatherDisplay:10.37,2013-01-27 01:02:00,
2013-01-26 19:07:00,20.0,13.3,30.43,North,4,0.0,0.0,75,0.00,CLR,,0.01,0.0,WeatherDisplay:10.37,2013-01-27 01:07:00,
2013-01-26 19:12:00,20.0,13.6,30.44,North,4,0.0,0.0,76,0.00,CLR,,0.01,0.0,WeatherDisplay:10.37,2013-01-27 01:12:00,
2013-01-26 19:17:00,20.0,13.6,30.44,North,4,0.0,0.0,76,0.00,CLR,,0.01,0.0,WeatherDisplay:10.37,2013-01-27 01:17:00,
2013-01-26 19:22:00,19.9,13.6,30.43,North,4,0.0,0.0,76,0.00,CLR,,0.01,0.0,WeatherDisplay:10.37,2013-01-27 01:22:00,
2013-01-26 19:27:00,20.1,13.4,30.42,North,4,0.0,0.0,75,0.00,CLR,,0.01,0.0,WeatherDisplay:10.37,2013-01-27 01:27:00,
2013-01-26 19:32:00,20.1,13.4,30.43,North,4,0.0,0.0,75,0.00,CLR,,0.01,0.0,WeatherDisplay:10.37,2013-01-27 01:32:00,
2013-01-26 19:37:00,20.0,13.3,30.43,North,4,0.0,0.0,75,0.00,CLR,,0.01,0.0,WeatherDisplay:10.37,2013-01-27 01:37:00,
2013-01-26 19:42:00,20.1,13.1,30.43,North,4,0.0,0.0,74,0.00,CLR,,0.01,0.0,WeatherDisplay:10.37,2013-01-27 01:42:00,
2013-01-26 19:47:00,20.3,13.0,30.44,North,4,0.0,0.0,73,0.00,CLR,,0.01,0.0,WeatherDisplay:10.37,2013-01-27 01:47:00,
2013-01-26 19:52:00,20.4,13.1,30.43,North,4,0.0,0.0,73,0.00,CLR,,0.01,0.0,WeatherDisplay:10.37,2013-01-27 01:52:00,
2013-01-26 19:57:00,20.6,13.3,30.43,North,4,0.0,0.0,73,0.00,CLR,,0.01,0.0,WeatherDisplay:10.37,2013-01-27 01:57:00,
2013-01-26 20:02:00,20.8,13.5,30.44,North,4,0.0,0.0,73,0.00,CLR,,0.01,0.0,WeatherDisplay:10.37,2013-01-27 02:02:00,
2013-01-26 20:07:00,20.9,13.6,30.44,North,4,0.0,0.0,73,0.00,CLR,,0.01,0.0,WeatherDisplay:10.37,2013-01-27 02:07:00,
2013-01-26 20:12:00,21.0,13.4,30.44,North,4,0.0,0.0,72,0.00,CLR,,0.01,0.0,WeatherDisplay:10.37,2013-01-27 02:12:00,
2013-01-26 20:17:00,21.1,13.5,30.44,North,4,0.0,0.0,72,0.00,CLR,,0.01,0.0,WeatherDisplay:10.37,2013-01-27 02:17:00,
2013-01-26 20:22:00,21.3,13.7,30.44,North,4,0.0,0.0,72,0.00,CLR,,0.01,0.0,WeatherDisplay:10.37,2013-01-27 02:22:00,
2013-01-26 20:27:00,21.4,13.8,30.44,North,4,0.0,0.0,72,0.00,CLR,,0.01,0.0,WeatherDisplay:10.37,2013-01-27 02:27:00,
2013-01-26 20:32:00,21.6,13.6,30.44,North,4,0.0,0.0,71,0.00,CLR,,0.01,0.0,WeatherDisplay:10.37,2013-01-27 02:32:00,
2013-01-26 20:37:00,21.8,13.5,30.43,North,4,0.0,0.0,70,0.00,CLR,,0.01,0.0,WeatherDisplay:10.37,2013-01-27 02:37:00,
2013-01-26 20:42:00,21.9,13.3,30.43,North,4,0.0,0.0,69,0.00,CLR,,0.01,0.0,WeatherDisplay:10.37,2013-01-27 02:42:00,
2013-01-26 20:47:00,22.0,13.4,30.43,North,4,0.0,0.0,69,0.00,CLR,,0.01,0.0,WeatherDisplay:10.37,2013-01-27 02:47:00,
2013-01-26 20:52:00,22.1,13.1,30.43,North,4,0.0,0.0,68,0.00,CLR,,0.01,0.0,WeatherDisplay:10.37,2013-01-27 02:52:00,
2013-01-26 20:57:00,22.1,12.8,30.43,North,4,0.0,0.0,67,0.00,CLR,,0.01,0.0,WeatherDisplay:10.37,2013-01-27 02:57:00,
2013-01-26 21:02:00,22.0,12.7,30.44,North,4,1.1,0.0,67,0.00,CLR,,0.01,0.0,WeatherDisplay:10.37,2013-01-27 03:02:00,
2013-01-26 21:07:00,21.9,12.6,30.44,North,4,0.0,0.0,67,0.00,CLR,,0.01,0.0,WeatherDisplay:10.37,2013-01-27 03:07:00,
2013-01-26 21:12:00,21.9,12.6,30.45,NW,306,0.0,0.0,67,0.00,CLR,,0.01,0.0,WeatherDisplay:10.37,2013-01-27 03:12:00,
2013-01-26 21:17:00,21.9,12.3,30.44,NE,52,0.0,0.0,66,0.00,CLR,,0.01,0.0,WeatherDisplay:10.37,2013-01-27 03:17:00,
2013-01-26 21:22:00,21.9,12.6,30.44,NE,51,0.0,0.0,67,0.00,CLR,,0.01,0.0,WeatherDisplay:10.37,2013-01-27 03:22:00,
2013-01-26 21:27:00,22.0,12.7,30.43,NE,52,0.0,0.0,67,0.00,CLR,,0.01,0.0,WeatherDisplay:10.37,2013-01-27 03:27:00,
2013-01-26 21:32:00,22.0,12.7,30.43,NE,52,0.0,0.0,67,0.00,CLR,,0.01,0.0,WeatherDisplay:10.37,2013-01-27 03:32:00,
2013-01-26 21:37:00,22.1,12.5,30.44,NE,51,1.1,0.0,66,0.00,CLR,,0.01,0.0,WeatherDisplay:10.37,2013-01-27 03:37:00,
2013-01-26 21:42:00,22.1,12.8,30.44,NE,52,0.0,0.0,67,0.00,CLR,,0.01,0.0,WeatherDisplay:10.37,2013-01-27 03:42:00,
2013-01-26 21:47:00,22.2,12.9,30.44,NE,52,0.0,0.0,67,0.00,CLR,,0.01,0.0,WeatherDisplay:10.37,2013-01-27 03:47:00,
2013-01-26 21:52:00,22.3,13.0,30.44,NE,52,1.1,0.0,67,0.00,CLR,,0.01,0.0,WeatherDisplay:10.37,2013-01-27 03:52:00,
2013-01-26 21:57:00,22.3,13.0,30.44,NE,52,0.0,0.0,67,0.00,CLR,,0.01,0.0,WeatherDisplay:10.37,2013-01-27 03:57:00,
2013-01-26 22:02:00,22.4,13.4,30.44,NE,52,0.0,0.0,68,0.00,CLR,,0.01,0.0,WeatherDisplay:10.37,2013-01-27 04:02:00,
2013-01-26 22:07:00,22.5,13.5,30.44,NE,52,0.0,0.0,68,0.00,CLR,,0.01,0.0,WeatherDisplay:10.37,2013-01-27 04:07:00,
2013-01-26 22:12:00,22.5,13.5,30.44,SE,129,0.0,0.0,68,0.00,CLR,,0.01,0.0,WeatherDisplay:10.37,2013-01-27 04:12:00,
2013-01-26 22:17:00,22.6,13.6,30.44,SE,129,0.0,0.0,68,0.00,CLR,,0.01,0.0,WeatherDisplay:10.37,2013-01-27 04:17:00,
2013-01-26 22:22:00,22.6,14.0,30.45,SE,129,1.1,0.0,69,0.00,CLR,,0.01,0.0,WeatherDisplay:10.37,2013-01-27 04:22:00,
2013-01-26 22:27:00,22.7,14.1,30.43,SE,129,0.0,0.0,69,0.00,CLR,,0.01,0.0,WeatherDisplay:10.37,2013-01-27 04:27:00,
2013-01-26 22:32:00,22.7,13.7,30.43,SE,129,0.0,0.0,68,0.00,CLR,,0.01,0.0,WeatherDisplay:10.37,2013-01-27 04:32:00,
2013-01-26 22:37:00,22.7,13.7,30.43,East,83,1.1,1.1,68,0.00,CLR,,0.01,0.0,WeatherDisplay:10.37,2013-01-27 04:37:00,
2013-01-26 22:42:00,22.7,14.1,30.43,ENE,59,1.0,1.0,69,0.00,CLR,,0.01,0.0,WeatherDisplay:10.37,2013-01-27 04:42:00,
2013-01-26 22:47:00,22.7,13.7,30.43,ENE,59,0.0,0.0,68,0.00,CLR,,0.01,0.0,WeatherDisplay:10.37,2013-01-27 04:47:00,
2013-01-26 22:52:00,22.7,13.7,30.43,East,90,0.0,0.1,68,0.00,CLR,,0.01,0.0,WeatherDisplay:10.37,2013-01-27 04:52:00,
2013-01-26 22:57:00,22.7,13.7,30.43,East,90,0.0,0.0,68,0.00,CLR,,0.01,0.0,WeatherDisplay:10.37,2013-01-27 04:57:00,
2013-01-26 23:00:00,22.6,13.6,30.43,East,90,0.0,0.0,68,0.00,CLR,,0.01,0.0,WeatherDisplay:10.37,2013-01-27 05:00:00,
2013-01-26 23:02:00,22.6,14.0,30.43,East,90,1.1,1.1,69,0.00,CLR,,0.01,0.0,WeatherDisplay:10.37,2013-01-27 05:02:00,
2013-01-26 23:03:00,22.6,14.0,30.43,East,90,0.0,0.0,69,0.00,CLR,,0.01,0.0,WeatherDisplay:10.37,2013-01-27 05:03:00,
2013-01-26 23:08:00,22.6,14.0,30.43,East,90,0.0,0.0,69,0.00,CLR,,0.01,0.0,WeatherDisplay:10.37,2013-01-27 05:08:00,
2013-01-26 23:13:00,22.6,14.0,30.42,East,90,0.0,0.0,69,0.00,CLR,,0.01,0.0,WeatherDisplay:10.37,2013-01-27 05:13:00,
2013-01-26 23:18:00,22.6,14.0,30.42,East,90,0.0,0.0,69,0.00,CLR,,0.01,0.0,WeatherDisplay:10.37,2013-01-27 05:18:00,
2013-01-26 23:23:00,22.6,14.0,30.42,SE,146,0.0,0.0,69,0.00,CLR,,0.01,0.0,WeatherDisplay:10.37,2013-01-27 05:23:00,
2013-01-26 23:28:00,22.6,14.0,30.42,NNE,28,2.3,2.3,69,0.00,CLR,,0.01,0.0,WeatherDisplay:10.37,2013-01-27 05:28:00,
2013-01-26 23:33:00,22.6,14.0,30.42,NNE,28,0.0,0.0,69,0.00,CLR,,0.01,0.0,WeatherDisplay:10.37,2013-01-27 05:33:00,
2013-01-26 23:38:00,22.6,14.0,30.42,NNE,28,0.0,0.0,69,0.00,CLR,,0.01,0.0,WeatherDisplay:10.37,2013-01-27 05:38:00,
2013-01-26 23:43:00,22.7,14.1,30.42,NNE,28,0.0,0.0,69,0.00,CLR,,0.01,0.0,WeatherDisplay:10.37,2013-01-27 05:43:00,
2013-01-26 23:48:00,22.8,14.1,30.42,NNE,28,0.0,0.0,69,0.00,CLR,,0.01,0.0,WeatherDisplay:10.37,2013-01-27 05:48:00,
2013-01-26 23:53:00,22.9,14.2,30.41,NNE,28,0.0,0.0,69,0.00,CLR,,0.01,0.0,WeatherDisplay:10.37,2013-01-27 05:53:00,
2013-01-26 23:58:00,23.0,14.3,30.41,NNE,28,2.3,2.3,69,0.00,CLR,,0.01,0.0,WeatherDisplay:10.37,2013-01-27 05:58:00,